User: anonymous   Login
Location: Barcelona
(41.3830°N, 2.1830°E)
Time: 10:52:47
(UTC+01:00)
Language:

CAS-4A - Orbit

View from above orbital plane
View from above orbital plane
View from above satellite
View from above satellite

Ground track
Ground track

The orbit data is extracted from the following two-line orbital elements,

1 42761U 17034D   19080.83468003 +.00000452 +00000-0 +41154-4 0  9995
2 42761 043.0185 358.3717 0010817 045.7090 016.6298 15.09591610097408
Epoch (UTC): 21 March 2019 20:01:56
Eccentricity: 0.0010817
inclination: 43.0185°
perigee height: 530 km
apogee height: 545 km
right ascension of ascending node: 358.3717°
argument of perigee: 45.7090°
revolutions per day: 15.09591610
mean anomaly at epoch: 16.6298°
orbit number at epoch: 9740

The dashed part of the orbit path shows where the satellite is in the earth's shadow,  

DLR